Location: Bothwell
(42.3833°S, 147.0000°E)
Time: 00:04:36
(UTC+10:00)

CUTE 1.7 + AOD 2 - Visible Passes

Search period start: 30 September 2023 00:00
Search period end: 10 October 2023 01:00
Orbit: 578 x 597 km, 97.7° (Epoch: 28 September)

Date Brightness Start Highest point End Pass type
(mag) Time Alt. Az. Time Alt. Az. Time Alt. Az.
30 Sep ? 02:18:21 15° SSE 02:18:21 15° SSE 02:19:13 10° S visible
01 Oct ? 03:25:37 17° S 03:25:37 17° S 03:26:43 10° S visible
02 Oct ? 03:32:52 19° S 03:32:52 19° S 03:34:11 10° S visible
03 Oct ? 03:40:06 21° S 03:40:06 21° S 03:41:36 10° S visible
04 Oct ? 03:47:19 23° S 03:47:19 23° S 03:49:00 10° S visible
05 Oct ? 03:54:32 25° S 03:54:32 25° S 03:56:22 10° S visible
06 Oct ? 04:01:46 26° SSW 04:01:46 26° SSW 04:03:42 10° SSW visible
07 Oct ? 02:32:28 11° SE 02:32:28 11° SE 02:33:23 10° SE visible
07 Oct ? 04:08:57 27° SSW 04:08:57 27° SSW 04:11:00 10° SSW visible
08 Oct ? 02:39:40 14° SE 02:39:40 14° SE 02:41:16 10° SSE visible
08 Oct ? 04:16:08 28° SSW 04:16:08 28° SSW 04:18:15 10° SSW visible
09 Oct ? 02:46:50 16° SE 02:46:50 16° SE 02:48:57 10° SSE visible
09 Oct ? 04:23:19 27° SW 04:23:19 27° SW 04:25:29 10° SSW visible
